EW9411 Weather Reports


time (UTC)temp
F
wind
direction
speed
knots
gust
knots
rain 1hr
in
rain 24hr
in
rain mn
in
humidity
%
barometer
mb
20260505224337 80 235 8.7 16.5 0.00 0.00 0.00 35 1006.1
20260505224136 80 231 6.1 18.2 0.00 0.00 0.00 35 1006.0
20260505223846 80 219 7.8 18.2 0.00 0.00 0.00 35 1005.9
20260505223645 80 200 8.7 18.2 0.00 0.00 0.00 35 1006.0
20260505223336 81 175 10.4 18.2 0.00 0.00 0.00 34 1005.9
20260505223134 81 202 7.8 16.5 0.00 0.00 0.00 34 1005.9
20260505222844 81 228 5.2 18.2 0.00 0.00 0.00 34 1005.9
20260505222642 81 225 3.5 18.2 0.00 0.00 0.00 35 1005.9
20260505222333 81 210 7.8 18.2 0.00 0.00 0.00 34 1005.9
20260505222218 81 216 7.8 18.2 0.00 0.00 0.00 34 1005.9
20260505221907 81 193 7.0 15.6 0.00 0.00 0.00 34 1005.9
20260505221644 81 203 6.1 15.6 0.00 0.00 0.00 34 1005.9
20260505221333 82 232 7.8 13.0 0.00 0.00 0.00 34 1005.9
20260505221210 82 249 7.0 13.0 0.00 0.00 0.00 34 1005.9
20260505220840 82 253 7.8 13.9 0.00 0.00 0.00 34 1005.9
20260505220637 82 240 6.1 17.4 0.00 0.00 0.00 34 1005.8
20260505220344 82 246 7.0 17.4 0.00 0.00 0.00 33 1005.8
20260505220207 82 225 9.6 17.4 0.00 0.00 0.00 33 1005.7
20260505215832 82 200 8.7 17.4 0.00 0.00 0.00 33 1005.7
20260505215635 82 227 7.8 16.5 0.00 0.00 0.00 32 1005.8
20260505215341 82 243 4.3 16.5 0.00 0.00 0.00 34 1005.8
20260505215143 82 212 9.6 18.2 0.00 0.00 0.00 32 1005.8
20260505214850 82 220 9.6 18.2 0.00 0.00 0.00 32 1005.8
20260505214653 81 213 7.8 18.2 0.00 0.00 0.00 33 1005.7
20260505214338 81 223 4.3 17.4 0.00 0.00 0.00 33 1005.7
20260505214158 81 260 7.8 20.0 0.00 0.00 0.00 32 1005.7
20260505213846 81 218 7.8 20.0 0.00 0.00 0.00 33 1005.7
20260505213644 81 212 5.2 20.0 0.00 0.00 0.00 33 1005.5
20260505213334 81 229 6.1 22.6 0.00 0.00 0.00 33 1005.6
20260505213133 81 196 7.8 22.6 0.00 0.00 0.00 33 1005.6
20260505212911 81 221 7.8 26.1 0.00 0.00 0.00 34 1005.5
20260505212647 81 244 11.3 26.1 0.00 0.00 0.00 33 1005.5
20260505212336 81 231 13.0 26.1 0.00 0.00 0.00 32 1005.4
20260505212157 81 211 12.2 18.2 0.00 0.00 0.00 34 1005.2
20260505211846 81 181 10.4 18.2 0.00 0.00 0.00 35 1005.2
20260505211645 82 186 10.4 18.2 0.00 0.00 0.00 34 1005.2
20260505211334 82 252 9.6 15.6 0.00 0.00 0.00 35 1005.2
20260505211132 82 261 8.7 18.2 0.00 0.00 0.00 34 1005.4
20260505210843 82 266 11.3 23.5 0.00 0.00 0.00 34 1005.3
20260505210641 82 216 7.8 23.5 0.00 0.00 0.00 35 1005.3
20260505210333 82 216 10.4 23.5 0.00 0.00 0.00 35 1005.3
20260505210150 82 257 13.0 23.5 0.00 0.00 0.00 35 1005.3
20260505205839 82 214 10.4 21.7 0.00 0.00 0.00 34 1005.4
20260505205637 82 225 10.4 21.7 0.00 0.00 0.00 34 1005.3
20260505205404 82 220 7.8 21.7 0.00 0.00 0.00 35 1005.3
20260505205145 82 208 13.9 21.7 0.00 0.00 0.00 34 1005.3
20260505204831 82 145 10.4 21.7 0.00 0.00 0.00 35 1005.3
20260505204634 82 233 8.7 17.4 0.00 0.00 0.00 37 1005.4
20260505204342 82 234 10.4 17.4 0.00 0.00 0.00 36 1005.3
20260505204144 82 214 9.6 16.5 0.00 0.00 0.00 36 1005.3
20260505203832 82 202 6.1 18.2 0.00 0.00 0.00 37 1005.4
20260505203634 82 234 5.2 20.0 0.00 0.00 0.00 37 1005.5
20260505203342 82 198 10.4 21.7 0.00 0.00 0.00 36 1005.6
20260505203144 81 246 10.4 21.7 0.00 0.00 0.00 36 1005.5
20260505202849 82 225 11.3 21.7 0.00 0.00 0.00 36 1005.5
20260505202653 83 216 10.4 21.7 0.00 0.00 0.00 36 1005.4
20260505202339 83 250 8.7 26.9 0.00 0.00 0.00 36 1005.6
20260505202135 82 213 9.6 26.9 0.00 0.00 0.00 36 1005.5
20260505201845 82 194 13.0 26.9 0.00 0.00 0.00 35 1005.5
20260505201643 83 230 11.3 25.2 0.00 0.00 0.00 37 1005.6
20260505201413 82 189 7.0 20.0 0.00 0.00 0.00 37 1005.5
20260505201210 82 250 13.0 20.0 0.00 0.00 0.00 36 1005.7
20260505200840 83 184 8.7 20.0 0.00 0.00 0.00 37 1005.5
20260505200638 83 211 9.6 20.0 0.00 0.00 0.00 36 1005.6
20260505200350 83 149 7.8 20.0 0.00 0.00 0.00 36 1005.5
20260505200207 83 207 9.6 20.0 0.00 0.00 0.00 37 1005.5
20260505195838 83 268 9.6 20.0 0.00 0.00 0.00 36 1005.5
20260505195636 83 212 10.4 20.9 0.00 0.00 0.00 34 1005.5
20260505195347 84 235 7.0 20.9 0.00 0.00 0.00 36 1005.5
20260505195142 83 209 7.0 20.9 0.00 0.00 0.00 35 1005.6
20260505194833 83 221 9.6 20.0 0.00 0.00 0.00 35 1005.6
20260505194651 83 276 8.7 19.1 0.00 0.00 0.00 35 1005.5
20260505194338 83 201 11.3 19.1 0.00 0.00 0.00 36 1005.6
20260505194139 83 227 10.4 20.0 0.00 0.00 0.00 36 1005.6
20260505193906 83 257 9.6 16.5 0.00 0.00 0.00 35 1005.7
20260505193646 83 226 6.1 19.1 0.00 0.00 0.00 36 1005.7
20260505193354 83 204 9.6 19.1 0.00 0.00 0.00 37 1005.7
20260505193156 82 189 8.7 19.1 0.00 0.00 0.00 38 1005.8
20260505192842 82 219 12.2 19.1 0.00 0.00 0.00 36 1005.8
20260505192639 82 230 12.2 19.1 0.00 0.00 0.00 37 1005.8
20260505192350 82 210 10.4 17.4 0.00 0.00 0.00 37 1005.8
20260505192148 82 187 9.6 18.2 0.00 0.00 0.00 37 1005.9
20260505191838 82 237 6.1 20.0 0.00 0.00 0.00 38 1006.0
20260505191635 82 206 8.7 20.0 0.00 0.00 0.00 37 1006.0
20260505191343 82 221 12.2 24.3 0.00 0.00 0.00 37 1005.9
20260505191141 82 202 12.2 24.3 0.00 0.00 0.00 37 1006.0
20260505190911 82 220 12.2 24.3 0.00 0.00 0.00 37 1006.1
20260505190709 82 173 13.9 24.3 0.00 0.00 0.00 37 1006.1
20260505190339 82 216 12.2 21.7 0.00 0.00 0.00 37 1006.1
20260505190135 82 243 12.2 26.1 0.00 0.00 0.00 38 1006.1
20260505185845 83 202 11.3 26.1 0.00 0.00 0.00 37 1006.2
20260505185644 83 211 10.4 26.1 0.00 0.00 0.00 38 1006.1
20260505185333 83 205 9.6 15.6 0.00 0.00 0.00 37 1006.1
20260505185151 83 165 7.0 15.6 0.00 0.00 0.00 39 1006.1
20260505184842 83 186 6.1 20.0 0.00 0.00 0.00 40 1006.1
20260505184641 83 233 8.7 20.0 0.00 0.00 0.00 39 1006.2
20260505184333 83 204 10.4 20.0 0.00 0.00 0.00 40 1006.4
20260505184150 83 206 5.2 13.9 0.00 0.00 0.00 43 1006.3
20260505183835 83 220 7.0 18.2 0.00 0.00 0.00 41 1006.5
20260505183637 82 176 7.8 18.2 0.00 0.00 0.00 41 1006.6
20260505183344 82 193 9.6 19.1 0.00 0.00 0.00 39 1006.6
20260505183146 82 191 11.3 19.1 0.00 0.00 0.00 39 1006.6
20260505182833 82 181 8.7 19.1 0.00 0.00 0.00 40 1006.8
20260505182635 82 279 12.2 24.3 0.00 0.00 0.00 39 1006.7
20260505182341 82 199 10.4 24.3 0.00 0.00 0.00 39 1006.7
20260505182144 82 185 9.6 24.3 0.00 0.00 0.00 41 1006.7
20260505181851 82 175 10.4 25.2 0.00 0.00 0.00 41 1006.7
20260505181633 82 241 9.6 17.4 0.00 0.00 0.00 41 1006.6
20260505181338 83 214 7.0 17.4 0.00 0.00 0.00 42 1006.6
20260505181141 82 212 7.8 17.4 0.00 0.00 0.00 44 1006.7
20260505180847 82 212 9.6 17.4 0.00 0.00 0.00 42 1006.8
20260505180649 82 229 7.0 20.0 0.00 0.00 0.00 42 1006.7
20260505180335 81 251 7.0 20.0 0.00 0.00 0.00 43 1006.8
20260505180136 81 148 10.4 21.7 0.00 0.00 0.00 43 1006.8
20260505175845 81 217 10.4 21.7 0.00 0.00 0.00 43 1006.9
20260505175642 81 212 7.8 21.7 0.00 0.00 0.00 45 1006.9
20260505175333 81 202 11.3 21.7 0.00 0.00 0.00 45 1006.8
20260505175150 81 208 5.2 18.2 0.00 0.00 0.00 48 1006.8
20260505174839 81 251 8.7 16.5 0.00 0.00 0.00 44 1006.9
20260505174657 81 217 8.7 16.5 0.00 0.00 0.00 44 1006.9
20260505174347 81 237 7.8 16.5 0.00 0.00 0.00 44 1006.9
20260505174145 81 208 9.6 16.5 0.00 0.00 0.00 45 1006.9
20260505173836 81 194 7.8 16.5 0.00 0.00 0.00 47 1006.9
20260505173634 81 181 7.8 16.5 0.00 0.00 0.00 45 1007.0
20260505173345 81 212 9.6 17.4 0.00 0.00 0.00 45 1007.0
20260505173204 81 235 7.8 17.4 0.00 0.00 0.00 47 1007.0
20260505172833 81 228 9.6 17.4 0.00 0.00 0.00 45 1007.0
20260505172650 81 182 7.8 17.4 0.00 0.00 0.00 46 1007.1
20260505172339 80 188 7.8 17.4 0.00 0.00 0.00 46 1007.2
20260505172138 80 232 7.8 17.4 0.00 0.00 0.00 46 1007.2
20260505171848 80 239 9.6 17.4 0.00 0.00 0.00 45 1007.3
20260505171707 80 214 9.6 14.8 0.00 0.00 0.00 46 1007.3
20260505171332 80 227 7.8 15.6 0.00 0.00 0.00 46 1007.4
20260505171135 80 199 7.0 15.6 0.00 0.00 0.00 46 1007.4
20260505170842 80 216 7.8 15.6 0.00 0.00 0.00 46 1007.4
20260505170642 80 199 8.7 15.6 0.00 0.00 0.00 47 1007.5
20260505170409 79 229 10.4 16.5 0.00 0.00 0.00 46 1007.5
20260505170149 79 218 8.7 14.8 0.00 0.00 0.00 47 1007.5
20260505165836 79 233 10.4 14.8 0.00 0.00 0.00 47 1007.6
20260505165637 79 198 8.7 17.4 0.00 0.00 0.00 47 1007.6
20260505165405 79 176 7.0 17.4 0.00 0.00 0.00 47 1007.7
20260505165141 79 254 8.7 17.4 0.00 0.00 0.00 48 1007.8
20260505164850 79 207 11.3 17.4 0.00 0.00 0.00 47 1007.8
20260505164710 79 202 7.8 13.0 0.00 0.00 0.00 50 1007.7
20260505164339 79 212 8.7 13.0 0.00 0.00 0.00 49 1007.8
20260505164137 79 208 8.7 13.0 0.00 0.00 0.00 48 1007.8
20260505163847 79 225 7.0 13.0 0.00 0.00 0.00 48 1007.8
20260505163646 79 239 6.1 13.0 0.00 0.00 0.00 50 1007.8
20260505163336 79 239 6.1 15.6 0.00 0.00 0.00 49 1007.8
20260505163134 79 235 8.7 15.6 0.00 0.00 0.00 48 1007.9
20260505162844 79 225 7.8 15.6 0.00 0.00 0.00 49 1007.9
20260505162641 79 197 9.6 15.6 0.00 0.00 0.00 49 1007.9
20260505162332 79 243 4.3 11.3 0.00 0.00 0.00 53 1007.9
20260505162209 78 185 5.2 14.8 0.00 0.00 0.00 50 1007.9
20260505161840 78 237 6.1 14.8 0.00 0.00 0.00 51 1007.9
20260505161657 78 225 6.1 14.8 0.00 0.00 0.00 50 1008.0
20260505161339 78 190 7.0 12.2 0.00 0.00 0.00 50 1008.0
20260505161143 78 229 6.1 12.2 0.00 0.00 0.00 49 1008.1
20260505160849 78 217 4.3 12.2 0.00 0.00 0.00 53 1008.1
20260505160631 78 162 7.0 13.9 0.00 0.00 0.00 52 1008.2
20260505160337 77 194 6.1 10.4 0.00 0.00 0.00 51 1008.1
20260505160200 77 178 6.1 12.2 0.00 0.00 0.00 50 1008.1
20260505153350 76 173 7.0 12.2 0.00 0.00 0.00 54 1008.6
20260505153210 76 208 6.1 10.4 0.00 0.00 0.00 56 1008.8
20260505152840 75 193 7.0 10.4 0.00 0.00 0.00 55 1008.8
20260505152639 75 218 6.1 10.4 0.00 0.00 0.00 55 1008.7
20260505152351 75 133 6.1 12.2 0.00 0.00 0.00 56 1008.7
20260505152209 75 185 6.1 12.2 0.00 0.00 0.00 57 1008.8
20260505151839 75 223 4.3 12.2 0.00 0.00 0.00 57 1008.8
20260505151638 75 193 7.8 12.2 0.00 0.00 0.00 56 1008.8
20260505151342 74 186 5.2 9.6 0.00 0.00 0.00 57 1008.7
20260505151143 74 204 4.3 9.6 0.00 0.00 0.00 56 1008.8
20260505150910 74 214 4.3 9.6 0.00 0.00 0.00 57 1008.8
20260505150634 74 226 5.2 10.4 0.00 0.00 0.00 57 1008.8
20260505150340 74 187 2.6 10.4 0.00 0.00 0.00 57 1008.8
20260505150141 74 206 7.0 10.4 0.00 0.00 0.00 56 1008.8
20260505140645 71 231 6.1 9.6 0.00 0.00 0.00 60 1009.2
20260505140334 71 143 5.2 9.6 0.00 0.00 0.00 60 1009.2
20260505140132 70 154 5.2 9.6 0.00 0.00 0.00 61 1009.2
20260505130149 65 196 3.5 8.7 0.00 0.00 0.00 72 1009.4
20260505124837 64 198 4.3 10.4 0.00 0.00 0.00 73 1009.0
20260505124658 63 181 6.1 10.4 0.00 0.00 0.00 74 1009.0
20260505124347 63 178 4.3 8.7 0.00 0.00 0.00 75 1008.9
20260505124145 63 220 3.5 8.7 0.00 0.00 0.00 76 1008.9
20260505123856 62 210 4.3 7.8 0.00 0.00 0.00 76 1008.9
20260505123634 62 203 4.3 7.8 0.00 0.00 0.00 77 1008.9
20260505123340 62 216 5.2 8.7 0.00 0.00 0.00 77 1009.0
20260505123138 61 218 3.5 8.7 0.00 0.00 0.00 78 1009.0
20260505122903 61 198 4.3 8.7 0.00 0.00 0.00 79 1009.0
20260505122643 61 207 5.2 8.7 0.00 0.00 0.00 79 1009.0
20260505122411 60 198 4.3 8.7 0.00 0.00 0.00 80 1009.0
20260505122149 60 222 5.2 8.7 0.00 0.00 0.00 80 1009.0
20260505121837 60 226 5.2 7.8 0.00 0.00 0.00 81 1009.1
20260505121638 59 208 3.5 7.0 0.00 0.00 0.00 82 1009.1
20260505121343 59 162 2.6 7.0 0.00 0.00 0.00 82 1009.2
20260505121141 59 213 3.5 7.0 0.00 0.00 0.00 83 1009.2
20260505120850 58 177 1.7 4.3 0.00 0.00 0.00 83 1009.2
20260505120646 58 154 1.7 4.3 0.00 0.00 0.00 84 1009.4
20260505120337 57 152 2.6 4.3 0.00 0.00 0.00 84 1009.4
20260505120157 57 187 1.7 3.5 0.00 0.00 0.00 85 1009.5
20260505115847 57 155 0.9 4.3 0.00 0.00 0.00 85 1009.5
20260505115645 56 156 2.6 4.3 0.00 0.00 0.00 86 1009.5
20260505115355 56 173 1.7 3.5 0.00 0.00 0.00 87 1009.4
20260505115133 55 175 0.9 3.5 0.00 0.00 0.00 87 1009.4
20260505114844 55 176 1.7 3.5 0.00 0.00 0.00 88 1009.4
20260505114644 54 216 1.7 2.6 0.00 0.00 0.00 88 1009.4
20260505114333 54 218 1.7 2.6 0.00 0.00 0.00 89 1009.4
20260505114133 54 218 1.7 2.6 0.00 0.00 0.00 89 1009.4
20260505113844 53 227 1.7 2.6 0.00 0.00 0.00 90 1009.3
20260505113641 53 227 0.9 2.6 0.00 0.00 0.00 90 1009.5
20260505113332 53 227 1.7 3.5 0.00 0.00 0.00 90 1009.5
20260505113150 53 227 0.9 3.5 0.00 0.00 0.00 90 1009.4
20260505112841 52 227 0.9 4.3 0.00 0.00 0.00 90 1009.4
20260505112640 52 227 1.7 4.3 0.00 0.00 0.00 90 1009.3
20260505112407 52 227 2.6 4.3 0.00 0.00 0.00 91 1009.3
20260505112208 52 223 1.7 3.5 0.00 0.00 0.00 91 1009.1
20260505111833 52 222 1.7 2.6 0.00 0.00 0.00 91 1009.1
20260505111635 52 222 1.7 2.6 0.00 0.00 0.00 92 1009.1
20260505111341 51 222 0.9 1.7 0.00 0.00 0.00 92 1008.9
20260505111205 51 222 0.0 2.6 0.00 0.00 0.00 92 1008.9
20260505110849 51 222 0.0 2.6 0.00 0.00 0.00 92 1008.9
20260505110647 51 222 0.9 2.6 0.00 0.00 0.00 92 1009.0
20260505110357 51 221 1.7 2.6 0.00 0.00 0.00 92 1009.0
20260505110215 51 223 1.7 2.6 0.00 0.00 0.00 92 1009.0
20260505102142 47 223 0.0 0.0 0.00 0.00 0.00 92 1009.3
20260505101848 47 223 0.0 0.0 0.00 0.00 0.00 92 1009.3
20260505101649 47 223 0.0 0.0 0.00 0.00 0.00 92 1009.2
20260505101333 47 223 0.0 0.0 0.00 0.00 0.00 92 1009.1
20260505101135 47 223 0.0 0.0 0.00 0.00 0.00 92 1009.1
20260505100841 47 223 0.0 0.0 0.00 0.00 0.00 92 1009.1
20260505100643 47 223 0.0 0.0 0.00 0.00 0.00 92 1009.1
20260505100350 47 223 0.0 0.0 0.00 0.00 0.00 92 1008.9
20260505100132 47 223 0.0 0.0 0.00 0.00 0.00 92 1008.8
20260505095838 47 223 0.0 0.0 0.00 0.00 0.00 92 1008.8
20260505095640 47 223 0.0 0.0 0.00 0.00 0.00 92 1008.8
20260505095348 47 223 0.0 0.0 0.00 0.00 0.00 92 1008.8
20260505095150 47 223 0.0 0.0 0.00 0.00 0.00 92 1008.8
20260505094836 47 223 0.0 0.0 0.00 0.00 0.00 91 1008.8
20260505094639 47 223 0.0 0.0 0.00 0.00 0.00 91 1008.9
20260505094346 47 223 0.0 0.0 0.00 0.00 0.00 91 1008.9
20260505094145 46 223 0.0 0.0 0.00 0.00 0.00 91 1008.9
20260505093835 46 223 0.0 0.0 0.00 0.00 0.00 91 1008.8
20260505093635 46 223 0.0 0.0 0.00 0.00 0.00 91 1008.8
20260505093345 46 223 0.0 0.0 0.00 0.00 0.00 91 1008.9
20260505093144 46 223 0.0 0.0 0.00 0.00 0.00 91 1008.7
20260505092835 46 223 0.0 0.0 0.00 0.00 0.00 91 1008.7
20260505092634 47 223 0.0 0.0 0.00 0.00 0.00 91 1008.7
20260505092345 47 223 0.0 0.0 0.00 0.00 0.00 91 1008.7
20260505092143 47 223 0.0 0.0 0.00 0.00 0.00 91 1008.6
20260505091835 47 223 0.0 0.0 0.00 0.00 0.00 91 1008.7
20260505091654 47 223 0.0 0.0 0.00 0.00 0.00 91 1008.6
20260505091403 47 223 0.0 0.0 0.00 0.00 0.00 91 1008.5
20260505091139 47 223 0.0 0.0 0.00 0.00 0.00 90 1008.5
20260505090850 47 223 0.0 0.0 0.00 0.00 0.00 90 1008.5
20260505090648 47 223 0.0 0.0 0.00 0.00 0.00 90 1008.4
20260505090339 47 223 0.0 0.0 0.00 0.00 0.00 90 1008.4
20260505090137 47 223 0.0 0.0 0.00 0.00 0.00 90 1008.4
20260505085846 47 223 0.0 0.0 0.00 0.00 0.00 90 1008.4
20260505085644 47 223 0.0 0.0 0.00 0.00 0.00 90 1008.4
20260505085334 47 223 0.0 0.0 0.00 0.00 0.00 90 1008.4
20260505085154 47 223 0.0 0.0 0.00 0.00 0.00 90 1008.3
20260505084838 47 223 0.0 0.0 0.00 0.00 0.00 90 1008.3
20260505084640 47 223 0.0 0.0 0.00 0.00 0.00 90 1008.3
20260505084347 47 223 0.0 0.0 0.00 0.00 0.00 90 1008.4
20260505084148 47 223 0.0 0.0 0.00 0.00 0.00 90 1008.4
20260505083856 47 223 0.0 0.0 0.00 0.00 0.00 90 1008.5
20260505083637 47 223 0.0 0.0 0.00 0.00 0.00 90 1008.4
20260505083343 47 223 0.0 0.0 0.00 0.00 0.00 90 1008.5
20260505083144 47 223 0.0 0.0 0.00 0.00 0.00 89 1008.4
20260505082831 47 223 0.0 0.0 0.00 0.00 0.00 89 1008.4
20260505082633 47 223 0.0 0.0 0.00 0.00 0.00 89 1008.4
20260505082341 47 223 0.0 0.0 0.00 0.00 0.00 89 1008.5
20260505082138 47 223 0.0 0.0 0.00 0.00 0.00 89 1008.5
20260505081848 47 223 0.0 0.0 0.00 0.00 0.00 89 1008.5
20260505081646 47 223 0.0 0.0 0.00 0.00 0.00 89 1008.4
20260505081355 47 223 0.0 0.0 0.00 0.00 0.00 89 1008.5
20260505081133 47 223 0.0 0.0 0.00 0.00 0.00 89 1008.4
20260505080844 47 223 0.0 0.0 0.00 0.00 0.00 89 1008.5
20260505080643 47 223 0.0 0.0 0.00 0.00 0.00 89 1008.5
20260505080353 47 223 0.0 0.0 0.00 0.00 0.00 89 1008.5
20260505080210 47 223 0.0 0.0 0.00 0.00 0.00 89 1008.5
20260505075839 47 223 0.0 0.0 0.00 0.00 0.00 89 1008.5
20260505075657 47 223 0.0 0.0 0.00 0.00 0.00 89 1008.5
20260505075347 48 223 0.0 0.0 0.00 0.00 0.00 88 1008.5
20260505075144 48 223 0.0 0.0 0.00 0.00 0.00 88 1008.5
20260505074836 48 223 0.0 0.0 0.00 0.00 0.00 88 1008.4
20260505074634 48 223 0.0 0.0 0.00 0.00 0.00 88 1008.5
20260505074341 48 223 0.0 0.0 0.00 0.00 0.00 88 1008.5
20260505074141 48 223 0.0 0.0 0.00 0.00 0.00 88 1008.5
20260505073847 48 223 0.0 0.0 0.00 0.00 0.00 88 1008.5
20260505073648 48 223 0.0 0.0 0.00 0.00 0.00 88 1008.4
20260505073335 48 223 0.0 0.0 0.00 0.00 0.00 88 1008.5
20260505073136 48 223 0.0 0.0 0.00 0.00 0.00 88 1008.4
20260505072842 48 223 0.0 0.0 0.00 0.00 0.00 88 1008.4
20260505072645 48 223 0.0 0.0 0.00 0.00 0.00 88 1008.4
20260505072354 48 223 0.0 0.0 0.00 0.00 0.00 88 1008.4
20260505072135 48 223 0.0 0.0 0.00 0.00 0.00 88 1008.4
20260505071842 48 223 0.0 0.0 0.00 0.00 0.00 88 1008.4
20260505071643 48 223 0.0 0.0 0.00 0.00 0.00 88 1008.5
20260505071347 48 223 0.0 0.0 0.00 0.00 0.00 88 1008.4
20260505071144 48 223 0.0 0.0 0.00 0.00 0.00 88 1008.4
20260505070835 48 223 0.0 0.0 0.00 0.00 0.00 88 1008.4
20260505070635 48 223 0.0 0.0 0.00 0.00 0.00 88 1008.4
20260505070346 48 223 0.0 0.0 0.00 0.00 0.00 88 1008.4
20260505070146 48 223 0.0 0.0 0.00 0.00 0.00 88 1008.4
20260505065837 48 223 0.0 0.0 0.00 0.00 0.00 88 1008.4
20260505065636 48 223 0.0 0.0 0.00 0.00 0.00 88 1008.4
20260505065346 48 223 0.0 0.0 0.00 0.00 0.00 87 1008.4
20260505065143 48 223 0.0 0.0 0.00 0.00 0.00 87 1008.5
20260505064833 48 223 0.0 0.0 0.00 0.00 0.00 87 1008.5
20260505064633 48 223 0.0 0.0 0.00 0.00 0.00 87 1008.5
20260505064343 48 223 0.0 0.0 0.00 0.00 0.00 87 1008.5
20260505064140 48 223 0.0 0.0 0.00 0.00 0.00 87 1008.4
20260505063852 48 223 0.0 0.0 0.00 0.00 0.00 87 1008.4
20260505063712 48 223 0.0 0.0 0.00 0.00 0.00 87 1008.4
20260505063341 48 223 0.0 0.0 0.00 0.00 0.00 87 1008.4
20260505063140 48 223 0.0 0.0 0.00 0.00 0.00 87 1008.4
20260505062909 48 223 0.0 0.0 0.00 0.00 0.00 86 1008.4
20260505062708 48 223 0.0 0.0 0.00 0.00 0.00 86 1008.5
20260505062353 48 223 0.0 0.0 0.00 0.00 0.00 86 1008.5
20260505062135 49 223 0.0 0.0 0.00 0.00 0.00 86 1008.5
20260505061902 49 223 0.0 0.0 0.00 0.00 0.00 86 1008.5
20260505061643 49 223 0.0 0.0 0.00 0.00 0.00 86 1008.6
20260505061347 49 223 0.0 0.0 0.00 0.00 0.00 86 1008.6
20260505061149 49 223 0.0 0.0 0.00 0.00 0.00 85 1008.6
20260505060835 49 223 0.0 0.0 0.00 0.00 0.00 85 1008.6
20260505060636 49 223 0.0 0.0 0.00 0.00 0.00 85 1008.6
20260505060343 49 223 0.0 0.0 0.00 0.00 0.00 85 1008.6
20260505060142 49 223 0.0 0.0 0.00 0.00 0.00 85 1008.6
20260505055832 49 223 0.0 0.0 0.00 0.00 0.00 85 1008.6
20260505055650 49 223 0.0 0.0 0.00 0.00 0.00 85 1008.6
20260505055342 49 223 0.0 0.0 0.00 0.00 0.00 85 1008.6
20260505055137 49 223 0.0 0.0 0.00 0.00 0.00 84 1008.7
20260505054847 49 223 0.0 0.0 0.00 0.00 0.00 84 1008.6
20260505054645 49 223 0.0 0.0 0.00 0.00 0.00 84 1008.7
20260505054336 50 223 0.0 0.0 0.00 0.00 0.00 84 1008.7
20260505054134 50 223 0.0 0.0 0.00 0.00 0.00 83 1008.7
20260505053844 50 223 0.0 0.0 0.00 0.00 0.00 83 1008.7
20260505053642 50 223 0.0 0.0 0.00 0.00 0.00 83 1008.7
20260505053333 50 223 0.0 0.0 0.00 0.00 0.00 83 1008.8
20260505053132 50 223 0.0 0.0 0.00 0.00 0.00 83 1008.7
20260505052844 50 223 0.0 0.0 0.00 0.00 0.00 83 1008.7
20260505052643 50 223 0.0 0.0 0.00 0.00 0.00 83 1008.8
20260505052333 50 223 0.0 0.0 0.00 0.00 0.00 82 1008.8
20260505052152 50 223 0.0 0.0 0.00 0.00 0.00 82 1008.8
20260505051903 50 223 0.0 0.0 0.00 0.00 0.00 82 1008.8
20260505051641 50 223 0.0 0.0 0.00 0.00 0.00 82 1008.9
20260505051349 50 223 0.0 0.0 0.00 0.00 0.00 82 1008.9
20260505051208 50 223 0.0 0.0 0.00 0.00 0.00 82 1008.9
20260505050833 50 223 0.0 0.0 0.00 0.00 0.00 82 1008.9
20260505050657 51 223 0.0 0.0 0.00 0.00 0.00 81 1009.0
20260505050343 51 223 0.0 0.0 0.00 0.00 0.00 81 1009.0
20260505050146 51 223 0.0 0.0 0.00 0.00 0.00 81 1008.9
20260505041638 52 223 0.0 0.0 0.00 0.00 0.00 79 1008.9
20260505041348 52 223 0.0 0.0 0.00 0.00 0.00 78 1009.0
20260505041144 52 223 0.0 0.0 0.00 0.00 0.00 78 1008.9
20260505040836 52 223 0.0 0.0 0.00 0.00 0.00 78 1008.9
20260505040634 52 223 0.0 0.0 0.00 0.00 0.00 78 1008.9
20260505040347 52 223 0.0 0.0 0.00 0.00 0.00 78 1008.9
20260505040145 53 223 0.0 0.0 0.00 0.00 0.00 78 1008.9
20260505035844 53 223 0.0 0.0 0.00 0.00 0.00 77 1008.9
20260505035708 53 223 0.0 0.0 0.00 0.00 0.00 77 1008.9
20260505035333 53 223 0.0 0.0 0.00 0.00 0.00 76 1008.9
20260505035135 53 223 0.0 0.0 0.00 0.00 0.00 76 1008.9
20260505034842 53 223 0.0 0.0 0.00 0.00 0.00 76 1008.9
20260505034645 53 223 0.0 0.0 0.00 0.00 0.00 76 1008.9
20260505034331 53 223 0.0 0.0 0.00 0.00 0.00 76 1009.0
20260505034134 53 223 0.0 0.0 0.00 0.00 0.00 76 1009.0
20260505033901 53 223 0.0 0.0 0.00 0.00 0.00 76 1009.0
20260505033642 53 223 0.0 0.0 0.00 0.00 0.00 76 1008.9
20260505033350 54 223 0.0 0.0 0.00 0.00 0.00 76 1009.0
20260505033147 54 223 0.0 0.0 0.00 0.00 0.00 76 1009.0
20260505032857 54 223 0.0 0.0 0.00 0.00 0.00 76 1009.0
20260505032634 54 223 0.0 0.0 0.00 0.00 0.00 76 1009.0
20260505032346 54 223 0.0 0.0 0.00 0.00 0.00 75 1009.0
20260505032144 54 223 0.0 0.0 0.00 0.00 0.00 75 1009.0
20260505031835 54 223 0.0 0.0 0.00 0.00 0.00 75 1009.1
20260505031653 54 223 0.0 0.0 0.00 0.00 0.00 75 1009.1
20260505031342 54 223 0.0 0.0 0.00 0.00 0.00 74 1009.1
20260505031202 54 223 0.0 0.0 0.00 0.00 0.00 74 1009.1
20260505030851 54 223 0.0 0.0 0.00 0.00 0.00 74 1009.1
20260505030649 54 223 0.0 0.0 0.00 0.00 0.00 74 1009.1
20260505030341 54 223 0.0 0.0 0.00 0.00 0.00 74 1009.2
20260505030139 54 223 0.0 0.0 0.00 0.00 0.00 73 1009.2
20260505025850 54 223 0.0 0.0 0.00 0.00 0.00 73 1009.1
20260505025648 54 223 0.0 0.0 0.00 0.00 0.00 73 1009.2
20260505025339 55 223 0.0 0.0 0.00 0.00 0.00 73 1009.2
20260505025137 55 223 0.0 0.0 0.00 0.00 0.00 72 1009.1
20260505024844 55 223 0.0 0.0 0.00 0.00 0.00 72 1009.1
20260505024646 55 223 0.0 0.0 0.00 0.00 0.00 72 1009.1
20260505024333 55 223 0.0 0.0 0.00 0.00 0.00 72 1009.1
20260505024135 55 223 0.0 0.9 0.00 0.00 0.00 71 1009.1
20260505023842 56 223 0.0 1.7 0.00 0.00 0.00 71 1009.1
20260505023644 56 223 0.0 1.7 0.00 0.00 0.00 71 1009.1
20260505023411 56 223 0.9 1.7 0.00 0.00 0.00 71 1009.1
20260505023132 56 223 0.0 1.7 0.00 0.00 0.00 71 1009.1
20260505022837 56 223 0.0 1.7 0.00 0.00 0.00 70 1009.1
20260505022639 56 223 0.9 1.7 0.00 0.00 0.00 70 1009.1
20260505022405 56 223 0.0 0.9 0.00 0.00 0.00 69 1009.1
20260505022142 56 223 0.9 0.9 0.00 0.00 0.00 69 1009.1
20260505021853 56 223 0.0 0.9 0.00 0.00 0.00 68 1009.0
20260505021649 57 223 0.0 0.9 0.00 0.00 0.00 68 1009.0
20260505021359 57 223 0.0 0.9 0.00 0.00 0.00 67 1009.1
20260505021154 57 223 0.0 0.9 0.00 0.00 0.00 67 1009.1
20260505020906 57 223 0.0 0.9 0.00 0.00 0.00 67 1009.2
20260505020643 57 223 0.0 0.9 0.00 0.00 0.00 67 1009.1
20260505020334 57 223 0.0 1.7 0.00 0.00 0.00 66 1009.2
20260505020153 58 223 0.0 1.7 0.00 0.00 0.00 66 1009.2
20260505015905 58 223 0.9 1.7 0.00 0.00 0.00 66 1009.2
20260505015643 58 223 0.0 1.7 0.00 0.00 0.00 66 1009.1
20260505015333 58 223 0.0 0.0 0.00 0.00 0.00 66 1009.0
20260505015151 58 223 0.0 0.0 0.00 0.00 0.00 65 1009.0
20260505014838 58 223 0.0 0.0 0.00 0.00 0.00 65 1009.0
20260505014639 59 223 0.0 0.0 0.00 0.00 0.00 64 1008.9
20260505014346 59 223 0.0 0.9 0.00 0.00 0.00 63 1008.9
20260505014148 59 223 0.0 1.7 0.00 0.00 0.00 63 1009.0
20260505013834 59 223 0.0 1.7 0.00 0.00 0.00 62 1008.9
20260505013657 60 223 0.0 1.7 0.00 0.00 0.00 62 1008.9
20260505013403 60 223 0.9 1.7 0.00 0.00 0.00 61 1009.0
20260505013144 60 223 0.9 1.7 0.00 0.00 0.00 60 1008.9
20260505012832 61 223 0.9 1.7 0.00 0.00 0.00 60 1008.9
20260505012633 61 223 0.9 1.7 0.00 0.00 0.00 60 1008.8
20260505012338 61 223 0.9 1.7 0.00 0.00 0.00 59 1008.8
20260505012156 61 223 0.9 0.9 0.00 0.00 0.00 58 1008.8
20260505011907 62 223 0.0 0.9 0.00 0.00 0.00 57 1008.8
20260505011645 62 223 0.0 0.9 0.00 0.00 0.00 56 1008.7
20260505011335 63 223 0.0 0.0 0.00 0.00 0.00 55 1008.7
20260505011154 63 223 0.0 0.9 0.00 0.00 0.00 54 1008.7
20260505010845 64 223 0.0 0.9 0.00 0.00 0.00 54 1008.6
20260505010643 64 223 0.0 1.7 0.00 0.00 0.00 53 1008.6
20260505010335 64 223 0.0 1.7 0.00 0.00 0.00 53 1008.6
20260505010151 64 223 0.0 1.7 0.00 0.00 0.00 53 1008.5
20260505005843 64 223 0.9 2.6 0.00 0.00 0.00 52 1008.5
20260505005703 65 223 0.9 2.6 0.00 0.00 0.00 51 1008.5
20260505005351 65 223 1.7 2.6 0.00 0.00 0.00 51 1008.5
20260505005151 65 223 0.9 3.5 0.00 0.00 0.00 50 1008.4
20260505004842 66 223 0.9 3.5 0.00 0.00 0.00 49 1008.4
20260505004639 66 223 1.7 3.5 0.00 0.00 0.00 48 1008.3
20260505004407 66 223 1.7 3.5 0.00 0.00 0.00 48 1008.2
20260505004209 67 223 0.9 2.6 0.00 0.00 0.00 48 1008.2
20260505003855 67 223 0.9 2.6 0.00 0.00 0.00 48 1008.2
20260505003657 67 223 0.9 7.0 0.00 0.00 0.00 48 1008.2
20260505003342 67 223 1.7 7.0 0.00 0.00 0.00 48 1008.1
20260505003139 67 223 1.7 7.0 0.00 0.00 0.00 47 1008.1
20260505002850 67 223 3.5 7.0 0.00 0.00 0.00 47 1008.1
20260505002647 67 209 2.6 5.2 0.00 0.00 0.00 47 1008.0
20260505002338 67 209 1.7 5.2 0.00 0.00 0.00 46 1008.0
20260505002136 67 209 2.6 5.2 0.00 0.00 0.00 46 1008.0
20260505001847 68 200 1.7 3.5 0.00 0.00 0.00 46 1007.9
20260505001645 68 200 2.6 3.5 0.00 0.00 0.00 46 1007.8
20260505001354 68 198 2.6 3.5 0.00 0.00 0.00 46 1007.9
20260505001212 68 187 1.7 3.5 0.00 0.00 0.00 46 1007.8
20260505000903 68 187 1.7 4.3 0.00 0.00 0.00 45 1007.7
20260505000700 68 187 1.7 4.3 0.00 0.00 0.00 45 1007.8
20260505000351 69 184 2.6 4.3 0.00 0.00 0.00 44 1007.7
20260505000146 69 198 1.7 3.5 0.00 0.00 0.00 44 1007.7
20260504235837 69 198 1.7 4.3 0.00 0.00 0.00 44 1007.6
20260504235634 69 198 1.7 4.3 0.00 0.00 0.00 44 1007.6
20260504235402 69 197 2.6 7.0 0.00 0.00 0.00 44 1007.5
20260504235143 69 198 2.6 7.0 0.00 0.00 0.00 44 1007.5
20260504234910 69 233 3.5 9.6 0.00 0.00 0.00 44 1007.4
20260504234649 69 219 3.5 9.6 0.00 0.00 0.00 43 1007.4
20260504234335 70 214 1.7 9.6 0.00 0.00 0.00 43 1007.4
20260504234138 70 212 3.5 9.6 0.00 0.00 0.00 42 1007.3
20260504233904 70 198 2.6 6.1 0.00 0.00 0.00 42 1007.2
20260504233642 70 193 3.5 6.1 0.00 0.00 0.00 43 1007.1
20260504233332 70 211 3.5 6.1 0.00 0.00 0.00 42 1007.1
20260504233151 70 221 4.3 6.1 0.00 0.00 0.00 42 1007.1
20260504232842 70 191 3.5 6.1 0.00 0.00 0.00 42 1007.1
20260504232639 70 206 4.3 6.1 0.00 0.00 0.00 42 1007.0
20260504232351 70 209 3.5 7.0 0.00 0.00 0.00 41 1007.1
20260504232149 70 222 4.3 7.0 0.00 0.00 0.00 41 1007.0
20260504231839 70 212 4.3 7.0 0.00 0.00 0.00 42 1007.0
20260504231636 71 219 4.3 8.7 0.00 0.00 0.00 41 1007.0
20260504231347 71 223 4.3 8.7 0.00 0.00 0.00 41 1007.0
20260504231205 71 225 5.2 8.7 0.00 0.00 0.00 41 1007.0
20260504230834 71 222 5.2 8.7 0.00 0.00 0.00 41 1006.9
20260504230633 71 227 3.5 10.4 0.00 0.00 0.00 42 1006.9
20260504230345 71 229 4.3 10.4 0.00 0.00 0.00 41 1006.9
20260504230204 71 239 4.3 10.4 0.00 0.00 0.00 40 1006.9
20260504225833 71 217 6.1 10.4 0.00 0.00 0.00 41 1006.8
20260504225652 71 229 6.1 12.2 0.00 0.00 0.00 40 1006.8
20260504225343 71 237 4.3 12.2 0.00 0.00 0.00 40 1006.9
20260504225202 71 229 4.3 12.2 0.00 0.00 0.00 40 1006.8
20260504224848 71 217 7.8 12.2 0.00 0.00 0.00 40 1006.8
20260504224650 71 199 6.1 10.4 0.00 0.00 0.00 40 1006.8